Wind_Speed
23 23 24 24 24 24 24 24 24 25 26 26 28 28 29 30 31 33 35 35 37 38 39 37 30 21 15 12 11 11 10 10 12 13 15 17 17 16 16 14 16 20 22 23 25 26 27 30 31 32 30 28 28 29 30 29 27 28 29 27 25 25 24 22 21 21 21 19 18 18 19 18 17 18 17 15 16 17 16 16 16 17 16 16 16
23 24 24 24 25 25 25 25 25 26 27 27 28 28 29 30 31 32 34 35 35 36 37 37 33 24 17 14 13 12 12 12 13 14 15 17 17 16 16 15 18 21 21 23 27 28 27 29 30 29 29 30 30 29 29 30 31 29 27 26 26 25 24 23 23 23 22 20 19 20 19 18 18 19 17 16 17 18 18 18 18 18 17 17 17
24 25 25 25 26 26 26 25 26 27 27 28 28 28 29 30 31 31 33 34 34 35 36 36 34 28 20 16 15 13 13 13 15 15 14 14 15 15 16 17 19 23 23 22 23 23 24 28 29 29 29 29 29 27 28 29 30 29 25 24 25 26 25 25 24 22 21 20 20 20 18 18 19 20 18 17 18 19 19 19 19 19 19 18 18
25 25 26 26 26 26 26 26 27 28 28 28 28 28 29 30 30 31 32 33 34 34 35 35 34 31 24 18 16 14 13 14 14 15 15 15 16 15 15 17 18 21 23 21 19 18 18 19 20 22 26 29 28 26 27 29 28 27 25 24 25 25 24 24 23 21 20 20 20 19 18 18 21 21 19 19 20 20 20 20 20 20 19 18 19
26 26 27 27 27 27 27 27 28 29 29 28 28 28 29 30 30 30 32 33 34 34 34 34 34 33 28 22 18 17 16 15 14 14 15 16 16 16 15 15 16 18 19 19 17 17 15 14 15 17 21 25 26 25 26 26 24 23 25 25 25 25 23 22 22 21 20 20 19 19 19 20 21 21 20 21 21 21 21 20 21 21 20 19 20
27 27 27 28 27 27 27 28 29 30 30 29 28 28 28 29 30 31 31 33 34 33 33 33 32 32 31 27 21 19 18 17 15 14 14 14 15 16 15 15 15 16 16 14 13 14 15 15 16 16 18 21 23 23 24 24 23 23 25 25 24 22 21 20 20 20 20 20 20 20 20 21 21 22 22 22 22 22 22 21 21 20 19 19 19
28 28 28 28 27 27 28 29 30 30 30 30 29 29 28 28 30 31 31 31 32 33 33 33 32 31 31 30 26 22 19 17 16 14 13 13 13 14 15 15 16 16 16 14 13 15 15 15 15 16 17 18 18 20 22 24 24 24 24 24 23 21 20 20 21 21 21 21 20 20 20 20 21 22 22 22 22 22 21 20 20 20 20 20 19
28 28 28 28 28 28 29 30 30 31 31 31 30 29 28 28 29 31 31 31 31 32 33 32 31 30 29 29 28 25 21 18 16 15 13 13 14 14 15 16 16 16 16 16 15 15 15 15 14 14 17 18 18 20 23 24 24 23 22 22 22 20 20 21 22 22 21 20 19 19 20 21 22 23 22 22 21 21 20 19 19 20 20 19 19
29 28 28 28 28 29 29 30 31 32 32 32 31 30 29 28 29 30 32 31 30 31 32 32 31 30 28 28 27 25 23 20 18 16 14 14 14 15 15 15 16 16 16 16 16 16 16 15 15 15 19 21 21 21 22 23 24 24 22 21 21 20 20 20 20 20 21 20 20 20 21 22 23 23 24 24 22 21 20 20 20 20 20 19 19
29 29 29 29 29 29 30 31 32 32 32 32 31 30 29 29 29 30 32 32 31 30 30 31 31 30 28 27 26 25 24 22 20 17 15 14 14 15 16 15 15 14 15 16 16 18 17 16 17 18 19 21 21 21 22 23 24 23 21 21 20 20 20 20 20 20 22 23 23 22 21 22 22 22 24 25 23 22 21 20 20 21 21 21 21
29 29 29 29 30 30 31 32 32 33 33 32 31 30 30 30 30 30 31 32 32 31 30 29 30 29 28 27 25 24 24 22 21 19 17 15 15 15 17 17 16 15 16 16 17 18 19 18 18 19 20 20 20 21 22 22 23 23 21 20 20 20 21 20 19 21 23 24 25 24 22 22 22 21 23 24 22 20 20 21 21 22 22 24 24
30 30 30 30 31 31 31 32 33 33 33 32 31 30 30 30 31 31 31 31 32 31 30 28 28 28 28 27 26 24 23 22 21 20 19 17 15 14 15 17 18 17 17 18 19 21 22 21 19 18 19 20 18 18 20 23 24 24 22 21 21 22 23 20 19 21 22 23 25 24 22 23 24 22 23 22 19 18 19 20 20 21 22 23 24
30 30 31 31 31 32 32 33 33 33 32 32 31 31 31 31 32 32 32 31 31 30 29 28 27 26 26 26 26 25 24 23 21 20 20 19 18 16 15 16 17 18 18 19 21 24 24 23 20 18 19 20 19 19 21 23 24 23 21 21 23 24 24 23 22 23 24 23 24 23 22 25 27 25 24 22 19 19 20 21 21 22 23 24 24
30 31 31 31 31 32 32 32 32 32 32 32 31 32 32 32 33 33 33 32 31 30 29 28 27 26 24 24 24 23 23 22 21 20 19 19 19 18 17 16 17 18 19 20 22 24 24 22 21 20 19 20 20 20 21 22 23 22 20 20 23 24 25 25 26 27 27 27 27 27 27 29 29 28 28 26 21 20 23 26 26 27 28 28 29
29 30 30 31 31 31 32 31 31 31 32 32 32 32 32 33 34 34 34 33 32 31 30 29 28 27 25 24 23 22 22 21 20 20 19 19 18 18 18 16 16 17 19 20 21 23 24 23 24 24 24 24 23 23 24 25 24 23 23 22 23 24 25 25 26 26 26 26 27 29 30 31 31 30 30 30 26 24 27 30 31 31 30 30 31
29 29 30 30 31 31 31 31 31 32 32 33 33 33 33 34 35 36 35 34 33 32 31 30 29 28 26 25 23 22 21 20 20 19 19 19 18 17 17 16 15 15 16 17 19 21 24 26 26 26 27 28 27 26 28 30 29 27 27 27 28 27 26 26 26 26 27 27 28 29 30 31 32 31 31 32 32 31 32 33 34 33 33 33 33
29 29 30 30 31 31 32 32 32 33 33 34 35 35 35 36 37 37 36 35 34 33 31 30 29 28 27 25 24 22 21 20 20 19 19 19 18 17 17 16 15 15 15 15 16 18 21 24 26 27 26 26 25 23 25 27 27 26 27 28 29 29 28 27 27 26 27 28 28 28 27 27 30 33 34 36 37 36 35 35 35 35 35 36 37
29 29 30 30 31 31 32 32 33 34 35 35 36 37 37 37 38 38 37 36 35 34 32 30 28 26 25 25 24 24 23 22 21 21 20 20 20 19 18 17 16 16 16 16 16 17 18 20 23 26 27 26 24 22 21 21 21 23 24 25 26 26 26 25 24 24 26 27 27 28 29 30 33 36 37 38 38 39 38 37 36 36 36 37 37
29 30 30 30 30 30 31 31 32 33 34 35 36 36 37 37 38 38 38 37 36 34 33 32 30 27 26 25 25 25 25 25 24 24 23 23 22 22 22 21 20 19 19 18 18 18 19 19 21 23 26 28 28 26 24 23 22 22 24 25 25 26 26 26 26 27 28 29 29 31 34 36 37 38 37 36 36 36 36 35 35 35 36 37 38
30 30 30 30 30 30 30 30 31 32 33 34 35 35 36 36 37 37 37 37 36 36 34 33 32 31 29 28 27 26 26 27 27 27 26 26 25 26 26 26 25 25 24 23 22 22 21 21 21 22 24 27 29 30 29 28 27 26 25 24 23 24 26 27 28 29 29 30 31 32 34 36 37 37 35 34 34 35 36 37 36 37 37 37 38
31 31 31 31 31 31 31 32 32 33 34 35 36 36 36 36 36 36 36 36 37 37 36 36 35 34 33 31 29 28 27 28 28 28 29 28 28 28 28 28 28 28 28 27 26 25 25 24 23 24 24 25 27 30 32 32 32 31 30 28 26 25 26 26 26 27 28 29 30 31 33 35 36 36 35 34 35 37 39 40 40 40 39 38 38
30 31 31 32 33 33 34 34 35 36 37 37 38 37 37 37 37 37 37 37 38 38 38 38 37 36 35 33 31 29 28 27 27 28 29 30 29 29 29 29 29 29 30 30 29 28 27 27 26 26 26 26 27 30 33 35 36 36 35 33 32 31 31 30 28 28 29 29 30 32 33 34 35 37 38 39 39 38 39 40 41 40 40 40 40
31 31 32 33 34 34 35 36 37 37 38 38 37 37 37 37 37 38 38 38 38 37 37 37 36 35 34 33 32 30 28 27 27 27 28 30 30 30 31 31 31 31 31 31 31 30 29 29 29 28 29 29 29 30 33 37 39 39 39 37 35 34 36 36 34 33 34 34 34 35 36 36 37 39 40 41 41 41 42 42 42 41 42 43 43
33 33 34 34 35 35 36 36 36 37 37 36 36 36 36 36 37 37 37 37 36 36 35 35 35 34 33 32 32 31 30 28 28 27 28 29 30 31 31 32 33 33 33 33 33 33 32 31 31 31 31 31 32 32 33 36 38 39 38 37 35 34 34 34 34 35 36 37 38 39 39 39 40 41 42 42 43 43 43 44 45 45 46 46 45
33 33 33 34 34 34 34 34 34 34 34 34 34 34 34 35 35 35 35 35 35 35 35 35 35 35 35 34 33 32 31 30 29 28 28 29 30 31 32 33 33 34 35 36 36 36 36 36 35 34 33 33 34 35 35 36 37 37 37 37 38 38 37 37 37 38 39 40 41 41 41 41 42 44 45 46 47 47 47 48 48 47 45 44 43
30 31 31 31 31 32 32 32 32 32 32 32 32 33 33 34 34 34 35 35 35 35 36 36 36 36 36 36 35 34 33 33 32 31 30 30 30 31 32 33 34 35 36 37 37 38 39 39 39 38 37 36 36 36 37 37 38 38 38 39 41 43 43 43 43 43 42 43 44 44 45 46 47 48 48 48 49 50 50 49 48 46 44 43 43
28 29 29 30 30 30 30 30 30 30 30 31 31 31 32 32 33 33 33 34 34 34 35 35 35 35 35 35 35 34 33 33 33 32 32 31 31 32 33 34 35 36 36 37 38 39 40 40 41 42 41 41 40 39 39 39 40 40 40 41 43 44 45 46 46 46 46 46 47 48 48 47 47 48 48 48 48 48 48 47 46 45 45 44 44
27 27 27 28 28 28 28 28 29 29 29 30 30 30 30 30 31 31 31 31 31 31 31 31 31 31 31 31 31 31 31 31 30 31 31 31 31 31 33 34 36 37 38 39 39 39 40 41 42 43 43 43 43 43 43 43 43 43 43 43 44 44 45 46 46 46 46 46 46 46 46 46 47 47 47 47 47 48 47 47 47 47 46 46 45
26 26 26 26 27 27 27 27 27 28 28 28 28 28 28 27 27 27 27 26 26 26 26 26 26 26 26 26 26 26 26 26 26 26 27 28 29 29 30 32 35 37 39 40 41 42 42 42 43 43 44 44 45 46 46 47 47 47 46 45 44 45 45 46 45 45 45 45 46 46 47 47 46 47 47 47 47 47 47 46 46 46 45 44 43
25 26 26 25 25 25 25 25 25 25 25 25 25 24 23 23 22 22 21 21 21 21 21 21 21 22 22 22 23 23 23 22 22 22 22 23 24 25 26 28 31 33 36 39 41 43 44 45 45 45 46 46 46 47 48 49 49 50 49 49 48 47 47 47 47 47 47 47 48 48 48 48 47 46 46 47 47 47 46 45 45 45 44 43 42
24 24 23 23 23 22 22 22 22 21 21 20 19 18 17 17 16 17 17 17 18 18 18 19 20 20 21 21 21 22 22 22 22 23 23 23 23 24 24 25 26 28 31 34 38 41 44 46 47 48 49 49 49 49 50 50 51 51 52 52 52 52 51 50 50 50 50 50 49 48 48 49 49 48 47 47 47 47 47 47 46 46 45 44 43
21 20 20 20 20 20 19 19 18 16 15 14 13 12 13 13 14 15 15 16 17 18 18 19 19 20 20 21 21 22 23 23 24 25 25 26 27 28 28 28 27 27 27 29 32 35 39 42 45 48 50 52 52 53 52 52 52 52 52 53 54 54 55 55 55 55 55 54 54 52 50 49 50 50 50 49 48 48 47 47 47 46 46 45 45
18 18 17 17 16 15 14 12 11 10 10 10 11 12 13 14 15 16 16 17 18 18 19 19 20 20 21 22 22 23 24 25 26 27 28 29 30 31 32 33 33 32 30 28 27 29 32 36 39 42 45 48 51 53 54 55 55 54 54 54 54 54 55 56 57 57 57 58 58 58 56 54 53 53 53 52 51 50 49 49 49 49 49 49 48
15 14 13 11 10 8 7 7 7 8 9 10 11 13 14 15 16 17 18 18 19 19 19 20 20 21 22 23 23 25 26 27 28 28 29 30 31 32 34 36 38 39 38 35 31 28 27 29 32 35 38 41 44 47 50 53 54 55 55 55 55 54 54 54 54 54 55 55 55 55 54 53 53 53 54 53 53 52 51 50 50 49 48 47 47
11 9 7 5 4 5 6 7 8 8 9 10 11 12 13 14 15 16 17 18 19 20 21 21 22 22 23 24 25 26 27 28 29 30 30 31 32 33 34 36 39 41 42 41 37 32 29 27 28 29 31 34 36 38 41 44 47 49 51 53 53 54 54 53 52 51 50 50 49 48 48 48 49 49 49 49 49 49 49 49 49 48 47 47 48
5 3 2 3 4 5 6 7 8 9 10 11 12 13 13 14 16 17 17 18 19 20 21 22 23 23 24 25 26 27 28 28 29 29 30 31 33 34 35 36 38 40 42 42 39 36 33 30 28 28 28 30 32 33 35 36 38 41 43 45 47 48 50 50 51 50 50 48 47 45 44 44 45 45 46 47 47 48 48 48 48 48 47 47 47
1 1 2 4 5 6 7 8 9 10 11 12 14 15 16 16 17 18 19 19 20 20 21 22 23 24 24 25 26 27 28 28 29 29 30 31 32 34 35 36 37 39 41 43 41 37 34 32 31 29 28 28 29 31 32 33 34 35 37 38 39 41 42 43 44 45 46 46 47 46 45 43 42 42 43 44 45 45 45 45 44 44 43 43 43
1 2 4 5 6 7 9 10 11 13 14 16 17 18 18 19 20 20 20 20 20 21 21 23 24 24 24 25 26 27 27 28 28 29 30 31 32 33 34 36 37 38 40 42 42 40 36 33 32 32 30 29 28 28 29 31 32 33 34 34 35 35 36 37 37 37 38 38 40 42 43 43 42 41 41 41 41 41 41 41 41 41 41 40 40
2 4 5 7 8 10 11 13 15 16 17 19 19 20 20 21 21 20 21 21 21 21 21 22 23 24 24 25 26 27 28 28 29 29 30 30 32 33 34 35 36 37 39 41 43 42 39 35 33 33 32 31 29 28 27 27 29 30 31 32 32 31 31 30 30 31 31 31 31 32 34 37 38 40 40 39 39 38 38 38 38 37 36 36 35
4 6 8 9 11 13 14 16 18 19 19 20 20 21 21 21 20 20 20 20 20 20 21 22 23 24 24 25 26 27 28 29 29 30 30 30 31 32 33 34 35 36 38 39 41 43 42 38 35 33 33 33 31 29 27 26 26 26 27 28 28 28 27 26 26 26 26 27 27 27 28 29 31 33 35 36 36 36 35 35 34 33 32 31 30
7 8 10 12 14 15 17 18 19 19 20 20 20 20 20 20 20 20 19 19 19 20 20 22 23 24 24 25 26 27 28 29 29 30 30 31 31 32 33 34 35 36 37 38 40 42 42 41 37 35 34 34 33 31 29 26 25 24 24 24 25 25 25 24 23 23 23 23 23 22 23 24 25 26 27 29 30 31 31 31 30 30 29 28 26
9 11 13 15 16 17 17 18 18 18 19 19 19 19 19 19 19 19 19 19 19 19 20 21 22 23 23 24 26 27 28 28 29 30 30 31 32 32 33 34 35 35 36 37 38 40 42 42 40 37 35 35 34 33 30 27 25 23 22 22 23 23 23 23 22 21 21 20 20 19 19 20 20 20 21 22 24 25 26 26 26 25 24 23 22
11 13 14 16 16 16 17 17 18 18 19 19 19 19 19 18 18 18 18 18 18 18 19 21 22 23 24 25 26 27 28 28 29 29 30 31 31 32 33 34 35 35 36 36 37 38 40 42 41 39 37 35 35 34 31 28 25 23 22 21 21 22 23 23 22 21 20 19 18 17 17 17 18 17 17 18 20 21 22 23 23 22 21 21 20
13 13 14 15 15 16 17 18 18 18 18 19 19 19 19 18 17 17 17 17 17 18 20 21 22 23 24 25 26 27 28 28 28 29 29 30 31 32 33 34 35 36 36 36 36 37 38 40 41 41 38 36 35 34 33 30 26 23 22 21 21 21 21 22 22 21 20 19 18 17 16 17 17 17 17 17 18 19 20 21 21 21 20 20 19
13 13 13 14 15 17 17 18 18 18 18 18 18 17 17 17 17 16 17 17 18 19 20 21 22 23 23 24 25 26 27 28 29 29 29 30 31 32 33 33 34 35 36 36 36 36 37 38 40 40 40 38 36 34 34 32 29 25 22 21 20 20 20 20 20 20 19 18 18 17 17 17 17 17 17 18 18 18 19 20 20 20 20 20 19
12 13 14 15 16 17 17 17 17 17 17 17 16 16 15 16 16 16 16 17 18 19 19 20 22 23 24 24 26 27 28 28 28 29 30 30 30 31 32 33 34 35 35 36 35 36 36 37 38 39 40 39 37 35 34 33 31 28 24 22 20 20 19 19 19 19 19 18 17 17 17 17 17 17 18 18 19 19 19 20 20 20 20 19 19
12 13 14 15 16 17 17 17 16 16 15 15 15 15 15 15 16 16 17 17 18 19 20 21 22 24 25 26 27 28 29 29 29 29 29 30 30 31 32 33 34 34 35 36 36 36 36 36 36 37 38 39 38 36 34 33 32 30 27 24 22 20 20 19 19 18 18 17 17 16 16 16 17 17 18 19 20 20 19 19 20 20 20 19 19
12 13 14 15 16 16 16 16 16 15 15 15 14 15 15 15 16 17 18 18 19 20 21 22 23 25 26 27 28 29 30 30 30 29 29 30 31 31 32 32 33 34 35 36 36 36 36 36 36 36 36 37 38 37 35 34 33 31 29 26 24 22 20 20 19 18 18 17 16 16 16 16 16 17 18 18 19 19 19 18 18 19 19 19 20
14 15 15 16 16 15 15 14 14 14 14 15 15 15 16 16 16 17 18 19 21 22 23 24 25 25 26 27 29 30 30 31 31 31 31 31 31 32 32 32 33 34 35 35 35 35 35 36 36 36 35 36 36 37 36 35 34 32 31 28 26 23 22 21 20 19 19 18 17 16 16 16 16 16 17 18 18 19 19 19 19 19 19 20 20
14 15 16 16 16 15 14 14 14 14 14 15 15 16 17 18 18 18 19 20 21 23 24 25 26 27 28 29 29 30 31 31 31 31 31 31 31 32 32 33 33 34 34 35 35 35 35 35 35 36 36 35 35 36 36 36 35 33 32 30 28 25 23 22 21 20 19 19 19 18 17 16 16 17 17 17 18 18 19 19 20 20 20 20 20
15 15 16 16 16 16 16 15 15 15 15 16 16 16 17 18 20 21 21 22 22 23 24 25 26 28 29 30 31 31 32 32 32 32 32 32 32 32 32 33 33 34 34 35 35 35 35 35 35 35 36 35 34 34 35 35 34 33 33 32 30 28 25 23 22 21 20 20 19 19 18 17 17 17 17 17 18 19 19 20 21 21 21 20 20
Wind_Direction
281 284 287 288 291 295 298 301 305 309 312 314 318 322 324 327 330 332 334 337 340 344 345 346 344 336 328 324 317 312 302 284 271 264 257 254 252 252 253 241 239 249 234 227 248 257 250 247 242 237 238 240 240 236 231 225 221 222 222 218 219 220 220 222 221 222 229 235 237 241 246 247 249 254 254 248 249 253 254 253 253 255 259 261 265
281 283 285 287 290 292 295 300 304 307 311 314 319 322 323 326 329 331 333 336 342 346 348 350 350 341 328 319 315 311 304 291 279 272 264 260 257 253 251 238 231 240 237 234 249 259 255 253 251 246 240 235 232 226 221 219 218 219 220 221 221 220 219 221 222 225 231 234 237 242 247 248 252 257 256 249 248 250 251 252 256 259 262 264 268
280 282 284 286 288 290 294 299 303 306 310 315 319 321 322 325 329 331 332 336 341 346 349 353 354 349 335 320 316 314 308 298 286 277 270 265 265 259 253 246 239 242 248 251 256 259 256 251 249 246 236 224 218 214 214 218 219 217 218 221 221 219 220 223 226 231 235 236 237 242 250 254 256 258 256 250 247 246 248 253 258 261 263 265 267
279 281 282 284 286 289 294 299 303 305 309 314 317 318 320 324 328 330 332 335 339 344 348 353 357 355 346 331 322 320 317 310 293 278 273 272 271 268 261 256 253 252 255 260 265 270 264 248 238 232 222 214 210 210 212 217 218 216 214 218 223 224 224 226 229 233 235 235 237 244 252 254 253 255 254 250 248 247 249 254 258 260 261 263 263
279 279 281 283 284 288 294 298 301 304 308 312 314 316 319 323 326 329 331 334 338 342 346 351 357 358 354 345 330 321 319 317 304 284 278 279 276 273 269 263 258 255 255 258 261 265 261 240 223 216 211 209 210 211 212 214 216 218 217 219 225 227 228 230 233 236 236 238 242 249 254 252 252 254 253 250 249 249 252 254 255 258 259 258 260
278 278 279 281 284 288 293 297 300 303 306 310 312 314 318 321 325 329 332 334 337 340 344 348 354 357 356 353 344 328 319 317 312 296 283 284 281 275 270 263 255 247 242 239 240 246 246 230 218 213 209 209 212 215 217 214 214 218 219 222 224 224 229 237 240 241 242 244 248 253 254 252 252 254 253 250 248 249 252 253 255 258 259 257 258
276 276 278 280 283 287 292 296 299 302 305 307 310 313 317 320 323 327 331 334 337 340 342 346 350 354 355 354 352 341 326 316 313 303 288 285 284 278 270 264 259 252 244 237 231 233 233 223 215 215 216 216 215 221 226 222 219 219 221 224 227 225 227 232 236 238 242 248 254 255 254 252 253 257 255 249 245 248 251 253 256 260 261 261 262
274 275 277 279 283 286 290 294 298 301 303 304 307 312 316 319 322 325 329 333 336 339 341 343 346 350 351 352 353 349 339 325 314 304 292 287 287 283 275 268 266 263 257 249 239 231 229 225 221 224 232 232 224 224 229 228 227 227 227 228 230 228 226 227 232 236 239 246 255 257 256 254 255 257 253 244 241 246 253 255 256 257 259 260 260
274 275 276 279 282 285 289 293 296 298 301 303 306 311 314 318 321 323 326 330 334 337 339 340 342 345 347 348 350 351 347 337 324 311 299 292 289 286 280 272 268 266 262 256 246 238 233 231 229 230 237 240 235 232 233 232 231 231 229 229 230 229 228 230 234 239 240 246 256 260 259 258 258 257 251 242 241 249 256 256 252 251 252 252 254
274 274 276 279 281 284 288 291 294 297 299 302 306 309 313 316 319 321 324 327 332 335 337 338 339 340 342 344 346 348 349 344 334 323 310 298 289 284 280 274 269 269 271 266 251 239 234 233 234 235 239 243 245 245 244 238 235 233 229 230 233 233 232 233 237 243 247 252 258 261 259 256 255 254 249 244 246 253 256 256 254 253 252 252 254
273 274 276 279 281 284 287 290 293 295 298 301 304 307 310 314 317 320 322 325 329 332 335 336 336 336 338 339 341 343 345 345 340 332 323 311 296 284 280 277 274 273 274 272 260 250 247 247 245 244 246 248 248 251 249 241 236 234 231 234 239 237 234 238 247 254 257 258 259 260 259 258 255 251 246 246 250 253 253 255 255 253 252 255 257
274 275 277 279 281 283 286 289 291 294 297 300 303 305 308 311 315 318 321 324 326 329 332 334 334 334 334 336 338 339 340 342 343 339 331 324 314 297 284 280 278 275 273 274 272 265 259 254 250 249 250 249 246 246 246 243 240 237 235 239 244 241 239 244 254 260 262 261 259 257 255 254 255 252 245 246 250 252 252 253 253 253 254 254 255
274 276 277 279 281 283 285 288 290 293 296 299 301 303 306 310 314 317 320 323 325 327 329 331 332 332 332 333 335 336 337 338 340 339 333 328 323 314 297 283 278 276 275 276 276 269 259 251 247 248 251 251 244 236 238 241 240 238 241 246 247 245 246 245 243 244 246 247 250 252 248 246 251 251 243 241 245 249 251 252 254 258 259 255 255
276 277 278 279 281 283 285 287 290 292 295 297 299 302 305 309 312 315 319 321 323 324 325 327 328 329 330 331 331 332 332 333 334 334 332 327 324 319 310 295 283 277 278 280 276 264 252 246 245 245 247 247 241 236 238 240 238 242 254 259 253 249 248 246 242 240 241 244 248 252 250 247 249 250 242 238 241 246 250 256 261 264 264 259 259
278 278 279 281 282 284 286 288 290 292 294 296 298 301 304 307 309 312 316 319 320 322 323 323 324 325 327 328 329 328 328 328 328 327 326 324 320 316 313 307 296 285 282 285 279 260 247 248 252 249 246 248 248 245 244 243 245 252 260 261 258 256 252 248 245 241 240 242 245 249 249 247 248 248 241 239 246 251 252 256 261 263 261 258 260
279 280 282 283 284 286 288 289 291 292 293 295 297 299 302 304 307 309 312 315 318 319 321 321 321 321 322 322 324 324 323 322 322 322 321 320 317 312 308 307 304 297 290 288 281 266 256 258 259 253 248 249 252 250 246 245 249 254 253 249 252 256 255 252 250 246 242 240 242 248 251 247 244 243 243 248 258 262 260 260 261 260 257 257 260
282 283 284 285 286 288 289 290 291 292 293 294 296 297 299 301 303 306 308 311 314 315 317 318 318 317 317 316 316 316 316 315 314 314 314 314 313 311 307 303 301 298 295 291 284 276 268 264 261 256 252 249 249 247 244 244 248 252 251 248 248 250 252 255 255 253 249 246 244 247 251 248 244 246 252 260 266 267 265 263 261 258 257 257 260
284 285 286 287 288 289 290 291 292 293 293 294 295 296 298 299 301 303 304 307 309 311 312 314 315 314 313 312 310 309 308 307 306 306 306 306 306 306 304 302 298 295 294 292 288 284 280 272 265 260 254 252 252 250 247 245 246 248 249 250 249 246 247 251 251 248 247 248 246 243 244 246 250 254 259 264 265 265 265 263 262 261 260 259 261
285 286 288 289 290 291 292 293 294 294 295 296 297 297 298 299 300 301 302 304 306 307 308 309 310 310 309 308 306 305 304 303 302 300 299 298 298 299 298 297 295 294 293 292 290 288 285 282 276 267 256 252 253 254 254 252 251 249 248 247 247 245 243 244 244 242 244 247 247 246 248 251 256 260 262 262 262 264 265 265 264 264 263 262 263
285 286 288 289 290 292 293 294 296 297 298 299 299 299 299 299 299 300 301 303 304 304 305 306 307 307 307 305 303 302 301 301 300 299 297 295 294 293 292 291 291 290 290 290 288 287 284 282 281 275 266 257 252 252 255 255 251 247 245 245 248 250 246 243 245 246 247 247 248 249 251 254 256 257 257 259 263 266 267 267 267 267 265 264 264
285 286 287 288 289 290 292 294 296 298 300 301 300 300 299 299 300 301 302 303 303 304 304 305 306 306 305 304 302 300 299 298 297 296 295 294 292 290 289 288 287 287 287 286 284 283 281 279 277 275 272 265 256 250 252 254 251 247 245 247 253 255 251 248 251 254 252 250 251 251 251 252 253 253 256 262 266 265 266 268 270 269 268 266 265
287 287 288 288 289 290 292 294 295 298 299 300 300 299 299 299 300 301 301 302 302 303 304 304 304 304 304 303 302 300 297 295 292 291 290 290 289 287 285 283 282 282 281 281 281 279 277 275 273 271 269 266 260 251 247 249 251 251 250 253 257 254 249 246 247 249 250 249 249 251 253 255 257 258 261 265 265 261 261 264 267 268 268 268 269
286 287 288 289 291 292 293 294 295 297 298 299 299 299 299 300 301 301 301 301 302 302 303 303 303 303 303 303 302 301 299 295 291 287 285 285 284 283 282 280 278 277 276 276 276 275 273 270 269 267 265 264 262 256 250 248 249 252 255 259 259 254 250 248 248 247 248 248 250 254 258 260 261 261 263 264 264 262 259 259 261 265 268 269 270
284 286 288 290 291 293 294 294 295 297 298 299 300 301 301 301 301 301 301 301 301 302 302 302 302 302 302 302 301 300 299 297 293 289 286 283 282 280 279 277 276 275 273 273 272 271 269 267 265 264 263 262 261 260 256 251 248 248 252 257 257 251 247 248 250 251 251 253 256 259 261 261 261 261 262 262 263 262 259 259 262 266 268 268 266
285 287 289 291 292 293 294 295 297 298 299 300 301 302 302 302 302 302 302 302 302 302 301 301 301 301 301 301 300 300 299 297 294 291 287 284 282 280 279 277 275 273 272 271 270 269 268 266 265 263 261 260 259 260 259 256 251 247 246 249 252 250 248 250 254 257 258 259 260 261 261 261 260 261 261 262 262 261 261 263 266 267 265 263 260
289 291 292 293 294 295 296 297 299 299 300 301 302 302 302 302 302 302 302 302 302 302 302 302 302 302 302 302 301 300 299 297 295 292 289 285 282 281 279 278 276 274 272 271 269 269 268 267 266 264 262 259 258 257 258 258 256 251 247 245 247 250 253 257 261 263 262 262 263 264 264 263 262 262 263 264 265 265 265 265 265 263 260 258 258
293 294 294 295 296 297 298 299 300 300 300 300 300 300 301 301 301 302 302 302 302 302 303 303 303 303 303 303 302 301 300 298 296 294 291 287 283 280 278 277 277 275 274 272 270 269 267 266 266 265 263 261 258 256 255 256 257 257 254 251 248 249 251 255 257 259 261 263 265 266 266 266 265 265 266 267 267 266 265 264 262 260 259 260 261
295 295 296 297 297 298 299 299 299 299 299 299 300 300 301 301 301 301 301 302 302 303 303 304 304 305 305 305 305 304 303 302 300 297 295 292 288 284 279 276 275 273 272 272 271 269 268 267 266 265 264 263 261 258 256 254 254 256 257 257 256 254 253 254 255 256 258 261 263 265 267 269 269 268 268 267 266 265 264 264 264 263 262 262 263
295 295 296 296 297 297 297 298 298 299 300 301 301 301 301 301 302 303 304 305 307 308 309 310 311 312 313 313 313 313 313 312 309 306 302 299 295 291 286 281 277 274 272 271 269 268 267 265 265 264 264 264 263 261 259 257 256 255 255 256 258 258 257 256 255 255 257 260 262 265 268 269 268 267 266 266 265 264 265 265 266 265 265 264 262
294 294 294 295 296 297 298 299 300 300 301 301 301 302 304 306 308 310 314 317 319 321 324 326 328 329 330 331 331 331 331 330 328 325 321 316 310 305 298 292 285 280 276 273 270 269 267 265 264 263 262 262 261 261 260 259 258 257 255 254 254 256 257 257 257 257 259 261 263 266 267 267 267 267 267 266 265 265 264 264 264 264 264 263 262
291 292 294 295 297 298 299 300 300 301 302 304 307 311 315 320 325 329 332 336 338 340 341 342 343 343 343 343 343 344 344 344 343 343 341 338 335 329 322 314 305 295 287 280 275 271 269 267 265 263 262 261 260 259 259 258 258 257 256 254 252 252 254 255 257 258 259 261 263 264 266 266 266 266 267 266 265 264 263 262 262 262 261 262 262
291 293 295 297 298 298 298 299 301 304 310 317 325 332 337 342 345 346 346 345 345 346 345 345 344 344 344 344 345 346 347 348 348 348 348 348 347 345 342 338 331 321 309 296 286 279 274 270 267 265 263 261 260 259 259 259 258 257 257 256 255 254 253 254 255 256 258 260 261 263 264 264 265 265 266 266 265 264 263 262 261 261 261 263 264
292 293 295 295 296 298 301 306 313 323 333 341 346 347 347 346 346 346 346 345 345 344 343 342 342 342 343 344 345 346 347 347 347 347 348 348 348 348 349 348 346 342 335 323 308 294 284 278 273 270 267 265 263 261 259 259 259 259 258 257 256 256 256 256 256 257 258 260 262 263 264 265 264 264 264 265 265 265 264 264 264 265 266 267 267
290 291 292 294 298 307 322 337 347 352 354 352 349 347 347 347 346 345 345 345 345 345 343 342 342 343 343 345 346 346 347 346 346 346 346 347 347 348 350 351 352 351 348 342 332 319 305 294 286 280 276 273 269 266 263 262 261 261 260 260 258 257 257 256 257 257 258 259 261 263 264 264 264 263 263 264 264 264 264 264 264 264 265 264 264
286 285 288 302 327 346 354 354 352 352 350 347 345 345 347 348 347 346 346 346 346 345 345 344 344 344 345 346 346 347 347 347 346 346 345 346 346 347 349 351 353 354 353 349 343 334 325 316 307 299 292 286 282 277 273 269 267 266 265 264 263 261 260 258 257 257 257 257 258 259 260 260 261 261 261 261 261 262 262 262 261 261 260 260 259
270 277 317 354 355 352 349 346 344 343 342 339 337 338 339 340 339 340 341 342 343 344 345 345 345 345 346 347 347 347 346 346 346 346 346 347 347 347 348 349 351 353 355 353 348 340 333 329 323 316 308 301 295 289 284 280 277 274 271 269 268 267 266 264 262 261 259 258 258 258 258 258 258 258 258 258 259 259 259 260 260 260 259 258 258
216 351 354 349 344 340 338 336 334 333 331 328 328 328 329 329 329 330 331 333 336 339 341 343 344 345 345 346 347 346 345 345 345 346 347 348 348 347 347 347 349 351 354 355 353 346 339 335 332 328 321 313 304 297 291 287 284 281 279 276 274 273 271 270 268 267 265 263 261 260 260 259 259 258 258 258 257 257 257 258 258 257 257 256 256
300 331 331 329 328 327 326 325 324 323 321 321 321 321 321 321 322 323 325 327 329 333 336 339 342 343 343 344 344 345 345 345 345 346 347 348 348 348 347 347 348 350 352 354 355 352 346 340 338 336 333 327 318 308 299 293 288 286 284 282 280 279 278 276 275 273 271 268 265 263 262 261 261 262 261 260 259 258 257 257 257 258 257 257 256
293 307 312 314 316 318 318 317 317 317 317 317 317 316 316 316 317 319 321 323 325 328 332 336 338 340 340 341 342 343 344 345 345 346 347 347 348 348 348 348 348 349 350 352 355 355 352 347 342 341 341 338 332 323 312 302 295 291 288 287 286 285 284 282 281 279 277 273 270 266 263 261 260 261 263 264 265 265 264 262 261 260 260 258 257
289 298 304 308 312 314 314 314 314 314 314 314 313 313 314 314 316 317 319 321 323 325 329 332 335 337 338 339 341 342 344 345 345 345 345 346 347 348 348 348 348 348 349 351 353 355 355 352 347 345 345 344 341 334 325 315 306 299 294 292 291 290 289 288 287 285 283 280 276 272 268 263 259 257 258 260 262 264 266 266 264 262 260 259 257
291 299 305 309 310 311 312 312 313 313 314 314 314 315 316 317 317 318 319 320 322 325 327 329 332 334 335 337 339 341 342 343 344 343 344 345 346 347 347 348 348 349 349 349 351 354 356 355 352 348 347 348 347 342 335 326 317 308 302 298 296 294 294 293 292 291 289 287 284 280 275 271 266 262 260 260 259 259 260 260 260 260 259 258 255
297 303 306 308 309 310 312 313 314 314 315 316 318 318 318 318 318 319 320 321 322 323 325 327 330 332 334 335 337 339 341 341 342 342 343 344 345 346 345 346 348 348 348 348 350 352 355 356 355 352 349 349 349 347 342 335 327 319 312 307 303 300 297 296 294 293 292 291 288 284 280 278 276 272 270 268 265 261 258 256 256 254 253 251 249
301 305 306 308 310 313 315 316 317 318 318 319 319 319 319 319 319 319 320 321 321 323 324 326 329 332 334 336 337 338 339 339 340 341 342 343 344 344 345 345 346 347 347 348 349 350 353 355 356 355 352 350 350 350 347 342 335 328 321 314 309 304 301 298 296 294 294 293 291 288 285 281 278 274 270 267 265 263 260 257 254 251 248 245 244
303 306 308 311 314 317 319 320 320 320 320 320 320 320 321 322 322 322 322 323 324 325 327 328 331 332 334 335 335 335 336 337 338 340 341 342 342 343 344 344 344 345 346 346 347 348 350 353 355 356 355 352 351 350 349 346 341 333 327 322 317 311 306 301 299 297 296 295 294 291 288 283 279 275 271 266 263 260 257 254 250 246 243 243 243
305 308 313 317 320 322 324 324 323 322 321 321 322 323 323 324 324 324 325 326 326 327 328 329 330 331 331 331 332 333 334 335 337 338 340 341 341 342 342 343 343 343 344 345 345 346 347 350 353 355 356 355 352 351 350 348 344 338 331 326 323 319 313 306 301 298 297 296 294 292 289 285 282 279 275 269 264 259 255 251 248 244 242 241 243
310 314 319 323 325 325 325 323 322 321 321 322 323 324 324 325 325 326 328 328 328 328 329 328 328 328 330 331 332 333 333 334 335 337 338 339 340 341 341 341 342 342 342 343 343 344 345 347 350 353 355 355 354 352 350 349 347 342 335 328 324 323 320 315 308 302 298 296 294 293 290 288 285 282 276 269 263 257 252 247 243 240 239 241 243
316 321 324 325 325 324 323 322 321 321 322 323 324 325 326 327 328 329 329 328 328 327 327 328 328 329 330 332 333 333 334 334 335 336 336 337 338 339 340 340 340 341 341 342 342 342 343 344 346 349 352 354 355 354 352 349 348 345 339 332 325 322 322 321 317 311 304 300 297 294 292 289 286 283 277 269 261 255 250 244 241 238 238 239 241
322 323 324 324 324 323 322 322 322 322 324 325 326 326 327 328 329 328 327 327 327 327 327 328 329 330 331 332 333 333 333 333 334 335 336 336 337 338 339 339 340 340 341 341 341 341 341 341 342 345 349 352 354 353 352 350 348 346 343 337 329 323 321 321 321 318 313 307 302 298 295 291 288 285 280 270 260 251 245 241 240 241 242 243 244
326 326 325 325 323 320 319 318 318 320 322 324 325 326 326 326 326 327 327 328 329 329 329 329 330 330 331 332 331 331 331 332 332 333 334 335 335 336 337 338 339 339 339 340 340 340 340 339 340 341 344 348 351 352 352 351 349 347 345 342 335 327 321 318 318 319 317 313 306 301 296 292 288 284 279 271 260 250 244 240 239 241 244 246 247
329 327 325 323 320 317 315 314 314 316 319 320 321 323 324 324 325 327 329 330 330 329 329 329 329 330 331 331 330 330 331 331 331 331 332 333 334 335 335 337 337 337 337 338 338 339 339 339 338 338 340 343 347 350 351 351 350 347 345 343 340 334 326 319 316 316 317 315 311 305 298 293 287 282 275 267 258 251 246 245 243 243 243 245 246
329 328 326 323 320 317 314 312 313 314 316 318 319 320 323 324 326 327 328 329 329 328 328 328 329 329 330 330 330 330 329 329 330 331 331 332 333 334 334 335 336 336 336 336 337 338 339 339 338 337 337 339 342 346 349 349 349 348 346 343 341 338 332 325 318 314 313 314 313 308 301 293 287 281 274 266 257 252 249 249 248 247 247 247 248
Height
5794 5794 5793 5792 5791 5790 5789 5788 5786 5785 5784 5782 5781 5779 5778 5776 5774 5771 5769 5766 5762 5757 5753 5747 5743 5741 5740 5738 5737 5737 5738 5738 5739 5739 5739 5740 5741 5742 5743 5743 5743 5740 5739 5741 5743 5744 5745 5746 5747 5748 5749 5751 5752 5753 5753 5754 5754 5755 5756 5758 5759 5760 5762 5763 5764 5766 5766 5767 5769 5770 5770 5771 5772 5772 5774 5775 5775 5775 5775 5776 5776 5775 5775 5775 5775
5791 5791 5790 5789 5789 5788 5786 5785 5783 5782 5781 5780 5778 5777 5775 5773 5771 5769 5766 5764 5761 5757 5752 5747 5743 5741 5739 5738 5737 5737 5737 5738 5738 5738 5738 5738 5740 5741 5741 5741 5741 5738 5737 5738 5740 5741 5741 5742 5743 5745 5746 5747 5748 5749 5749 5749 5750 5751 5752 5754 5756 5757 5759 5760 5761 5762 5764 5765 5767 5767 5767 5768 5769 5769 5771 5771 5771 5772 5772 5772 5772 5772 5772 5772 5773
5788 5788 5787 5786 5786 5785 5784 5782 5781 5780 5779 5777 5776 5774 5773 5771 5769 5767 5764 5762 5759 5756 5752 5748 5744 5741 5739 5738 5737 5737 5737 5737 5738 5737 5737 5737 5738 5738 5738 5738 5739 5738 5737 5737 5738 5738 5738 5738 5739 5741 5742 5743 5744 5745 5746 5747 5747 5749 5751 5751 5752 5754 5756 5757 5758 5760 5762 5763 5764 5764 5765 5766 5766 5766 5768 5768 5768 5768 5769 5770 5769 5769 5769 5769 5769
5785 5785 5784 5784 5783 5782 5781 5780 5778 5777 5776 5775 5774 5772 5770 5768 5767 5765 5762 5760 5758 5755 5751 5748 5745 5741 5738 5737 5736 5736 5736 5736 5736 5736 5736 5736 5736 5736 5736 5736 5737 5736 5736 5736 5736 5736 5736 5735 5736 5737 5739 5740 5740 5741 5743 5744 5744 5747 5750 5749 5749 5751 5753 5754 5756 5758 5759 5760 5761 5762 5763 5763 5763 5763 5764 5764 5764 5765 5766 5767 5767 5766 5766 5766 5766
5782 5782 5781 5781 5780 5780 5778 5777 5776 5775 5773 5772 5771 5770 5768 5766 5764 5762 5760 5758 5756 5753 5750 5747 5745 5741 5739 5737 5736 5735 5735 5734 5734 5734 5734 5735 5735 5734 5735 5735 5735 5735 5734 5734 5734 5735 5734 5734 5734 5735 5737 5738 5738 5738 5740 5741 5741 5745 5748 5748 5747 5749 5751 5751 5753 5754 5755 5757 5758 5759 5760 5760 5759 5760 5760 5760 5761 5762 5763 5764 5764 5763 5763 5763 5762
5779 5779 5778 5778 5778 5777 5776 5775 5773 5772 5771 5770 5769 5767 5766 5764 5762 5760 5758 5756 5754 5751 5749 5746 5744 5742 5739 5737 5735 5734 5734 5733 5733 5732 5732 5732 5732 5733 5733 5733 5734 5733 5732 5732 5733 5733 5733 5733 5733 5734 5735 5735 5736 5737 5738 5738 5739 5741 5744 5745 5745 5748 5749 5750 5751 5751 5752 5753 5754 5755 5756 5756 5756 5756 5756 5757 5757 5758 5760 5761 5760 5759 5759 5759 5759
5776 5776 5775 5775 5775 5774 5773 5772 5771 5769 5768 5767 5766 5765 5763 5762 5760 5758 5756 5754 5752 5750 5747 5745 5744 5741 5739 5737 5735 5733 5732 5732 5731 5731 5731 5731 5731 5731 5731 5732 5732 5731 5731 5731 5731 5731 5732 5732 5732 5733 5733 5734 5735 5736 5736 5736 5736 5737 5739 5741 5743 5746 5747 5747 5747 5747 5748 5749 5750 5751 5751 5752 5752 5752 5753 5753 5754 5755 5756 5757 5756 5755 5754 5755 5755
5773 5773 5772 5772 5772 5771 5771 5770 5768 5767 5766 5765 5763 5762 5761 5759 5758 5756 5754 5753 5751 5748 5746 5744 5743 5741 5739 5737 5735 5733 5732 5730 5730 5730 5730 5730 5730 5729 5729 5729 5730 5730 5730 5730 5730 5729 5729 5730 5731 5731 5732 5733 5734 5734 5734 5735 5735 5735 5737 5738 5740 5742 5743 5743 5744 5744 5744 5745 5746 5747 5747 5748 5748 5748 5749 5749 5750 5751 5752 5753 5752 5751 5751 5751 5751
5770 5770 5769 5769 5769 5768 5768 5767 5766 5765 5763 5762 5761 5759 5758 5757 5755 5754 5752 5750 5749 5747 5745 5743 5742 5740 5738 5737 5735 5733 5731 5730 5728 5728 5728 5728 5728 5727 5727 5727 5728 5728 5729 5729 5728 5727 5727 5728 5729 5729 5729 5731 5732 5731 5732 5733 5733 5733 5735 5736 5737 5738 5740 5740 5741 5741 5741 5742 5743 5743 5744 5744 5743 5743 5744 5745 5747 5747 5749 5749 5748 5747 5747 5748 5748
5767 5767 5766 5766 5766 5765 5765 5764 5763 5762 5761 5760 5758 5757 5756 5754 5753 5752 5750 5748 5747 5746 5744 5742 5740 5739 5737 5736 5734 5732 5731 5729 5728 5727 5726 5726 5726 5725 5725 5725 5726 5727 5727 5726 5727 5726 5726 5726 5726 5727 5727 5728 5728 5728 5730 5730 5730 5730 5732 5733 5733 5735 5737 5738 5739 5739 5739 5740 5740 5741 5741 5740 5740 5740 5741 5742 5743 5744 5745 5745 5745 5744 5744 5744 5744
5764 5764 5763 5763 5763 5762 5761 5761 5760 5760 5759 5757 5756 5754 5753 5752 5751 5750 5748 5747 5745 5744 5742 5740 5739 5737 5736 5735 5733 5731 5730 5728 5727 5726 5725 5725 5724 5723 5723 5723 5724 5725 5724 5724 5725 5725 5725 5724 5724 5724 5725 5725 5726 5726 5727 5727 5727 5727 5729 5730 5731 5733 5734 5735 5736 5737 5737 5737 5737 5737 5737 5737 5737 5738 5738 5738 5739 5740 5740 5741 5741 5741 5741 5740 5740
5761 5761 5760 5760 5760 5759 5759 5758 5757 5757 5756 5755 5753 5752 5751 5750 5748 5747 5746 5745 5743 5742 5740 5739 5737 5735 5734 5733 5732 5730 5728 5727 5726 5725 5724 5723 5722 5722 5721 5721 5721 5722 5722 5722 5722 5723 5722 5722 5722 5722 5722 5723 5724 5725 5725 5725 5725 5725 5726 5727 5729 5730 5731 5732 5734 5734 5734 5733 5733 5733 5734 5733 5733 5735 5735 5735 5735 5736 5736 5736 5737 5737 5736 5736 5736
5758 5758 5757 5757 5757 5756 5756 5755 5755 5754 5753 5752 5751 5749 5748 5747 5746 5745 5744 5742 5741 5740 5738 5737 5736 5734 5733 5731 5729 5728 5727 5725 5724 5723 5722 5722 5721 5721 5720 5719 5719 5719 5719 5719 5720 5719 5719 5719 5719 5720 5720 5720 5722 5723 5722 5722 5722 5722 5723 5724 5725 5726 5728 5729 5731 5731 5730 5729 5729 5730 5731 5730 5730 5731 5732 5731 5731 5731 5731 5731 5732 5733 5732 5732 5733
5755 5755 5754 5754 5754 5753 5753 5752 5751 5751 5750 5749 5748 5747 5745 5744 5743 5742 5741 5740 5739 5737 5736 5735 5734 5733 5731 5730 5728 5727 5725 5724 5723 5722 5721 5720 5720 5719 5719 5718 5717 5716 5716 5717 5717 5716 5716 5716 5717 5717 5717 5717 5718 5720 5720 5719 5719 5720 5720 5721 5721 5722 5724 5725 5726 5727 5727 5727 5727 5727 5727 5727 5727 5728 5728 5727 5727 5728 5729 5728 5728 5729 5728 5728 5728
5752 5752 5752 5751 5751 5750 5750 5749 5748 5747 5747 5746 5745 5744 5743 5741 5740 5739 5738 5737 5736 5735 5734 5733 5732 5730 5729 5728 5727 5725 5724 5723 5722 5720 5719 5719 5718 5717 5716 5716 5715 5714 5714 5714 5714 5714 5714 5714 5714 5714 5714 5714 5715 5716 5716 5716 5717 5717 5717 5716 5715 5717 5719 5720 5721 5722 5723 5723 5722 5721 5722 5722 5723 5723 5724 5724 5724 5725 5726 5725 5724 5724 5724 5724 5724
5749 5749 5749 5748 5748 5747 5747 5746 5745 5744 5743 5743 5742 5741 5740 5739 5737 5736 5735 5734 5733 5732 5731 5729 5729 5728 5727 5726 5725 5724 5722 5721 5720 5719 5718 5717 5716 5716 5715 5714 5713 5712 5712 5711 5712 5712 5712 5712 5711 5710 5710 5711 5712 5713 5713 5713 5714 5714 5713 5712 5712 5713 5714 5715 5716 5717 5717 5717 5717 5716 5717 5717 5718 5718 5719 5719 5719 5721 5721 5720 5719 5719 5719 5719 5719
5747 5746 5746 5745 5745 5744 5744 5743 5742 5741 5740 5739 5739 5738 5737 5736 5735 5733 5732 5731 5730 5729 5728 5727 5726 5725 5724 5723 5722 5721 5720 5719 5718 5717 5716 5715 5714 5714 5713 5712 5711 5710 5710 5709 5709 5709 5709 5709 5708 5707 5707 5707 5708 5708 5708 5709 5709 5710 5709 5709 5710 5710 5711 5711 5712 5712 5712 5712 5712 5713 5713 5713 5713 5714 5714 5714 5714 5715 5715 5714 5714 5714 5714 5714 5714
5744 5744 5743 5742 5742 5741 5740 5740 5739 5738 5737 5736 5735 5734 5733 5732 5731 5730 5729 5728 5727 5726 5725 5724 5723 5722 5721 5720 5719 5718 5717 5717 5716 5715 5714 5713 5712 5711 5711 5710 5709 5708 5707 5707 5706 5706 5705 5705 5704 5704 5704 5704 5704 5704 5704 5704 5705 5705 5704 5705 5706 5706 5706 5707 5707 5708 5707 5708 5709 5709 5709 5709 5708 5708 5709 5709 5709 5709 5709 5709 5709 5709 5709 5709 5709
5741 5741 5740 5739 5739 5738 5737 5736 5735 5734 5733 5732 5732 5731 5730 5729 5727 5726 5725 5724 5723 5722 5721 5720 5719 5718 5717 5716 5715 5715 5714 5713 5712 5712 5712 5711 5710 5709 5708 5707 5706 5706 5705 5704 5703 5702 5702 5701 5701 5700 5700 5700 5700 5700 5700 5700 5700 5700 5700 5700 5701 5701 5702 5703 5703 5703 5703 5704 5704 5704 5704 5704 5703 5703 5704 5705 5705 5704 5704 5704 5704 5703 5703 5704 5704
5738 5738 5737 5736 5736 5735 5734 5733 5732 5731 5730 5729 5728 5727 5726 5725 5724 5722 5721 5720 5719 5718 5717 5716 5715 5714 5714 5713 5711 5711 5710 5709 5708 5708 5707 5707 5706 5706 5705 5704 5703 5702 5702 5701 5700 5699 5698 5698 5697 5697 5696 5696 5695 5696 5696 5696 5696 5696 5695 5695 5696 5697 5697 5698 5698 5698 5699 5699 5699 5699 5699 5699 5698 5698 5699 5699 5699 5700 5700 5699 5699 5699 5699 5699 5699
5735 5734 5734 5733 5732 5732 5731 5730 5729 5728 5726 5725 5724 5723 5722 5721 5719 5718 5717 5716 5715 5714 5713 5712 5711 5710 5709 5708 5707 5706 5705 5705 5704 5703 5702 5702 5701 5701 5700 5699 5699 5698 5697 5697 5696 5695 5695 5694 5693 5693 5692 5692 5691 5691 5691 5691 5691 5691 5691 5691 5692 5693 5693 5693 5693 5694 5694 5695 5695 5695 5695 5694 5693 5693 5693 5693 5694 5694 5694 5694 5694 5694 5694 5694 5693
5731 5731 5730 5729 5729 5728 5727 5726 5725 5724 5723 5721 5720 5719 5718 5717 5715 5714 5713 5712 5711 5709 5708 5707 5706 5705 5704 5703 5702 5701 5701 5700 5699 5698 5697 5697 5696 5696 5695 5694 5694 5693 5692 5692 5691 5691 5690 5690 5689 5689 5688 5687 5687 5686 5686 5686 5686 5686 5686 5686 5687 5688 5688 5689 5689 5689 5689 5690 5690 5690 5689 5689 5688 5688 5688 5687 5688 5688 5689 5689 5688 5688 5688 5687 5687
5728 5727 5726 5726 5725 5724 5723 5722 5721 5720 5718 5717 5716 5715 5713 5712 5711 5710 5709 5708 5706 5705 5704 5702 5701 5700 5699 5698 5697 5696 5695 5695 5694 5694 5693 5692 5691 5690 5689 5689 5688 5687 5687 5686 5686 5685 5685 5685 5684 5684 5683 5682 5682 5681 5681 5680 5680 5680 5680 5681 5681 5682 5683 5683 5683 5683 5683 5684 5683 5683 5682 5682 5682 5681 5681 5681 5682 5683 5683 5683 5682 5682 5681 5681 5681
5724 5723 5722 5722 5721 5720 5719 5718 5717 5716 5715 5713 5712 5711 5709 5708 5707 5705 5704 5703 5702 5701 5699 5698 5697 5696 5695 5694 5693 5691 5690 5690 5689 5688 5688 5687 5686 5685 5684 5683 5682 5682 5681 5680 5680 5679 5679 5679 5678 5678 5677 5677 5676 5676 5675 5675 5674 5674 5674 5675 5675 5676 5676 5676 5677 5677 5677 5677 5676 5676 5675 5675 5675 5675 5675 5675 5675 5676 5677 5677 5676 5676 5675 5674 5674
5720 5719 5718 5718 5717 5716 5715 5714 5713 5712 5711 5709 5708 5707 5705 5704 5702 5701 5700 5698 5697 5696 5695 5694 5692 5691 5690 5689 5688 5687 5686 5685 5684 5683 5682 5681 5680 5679 5678 5678 5677 5676 5675 5674 5674 5673 5673 5672 5672 5671 5671 5671 5670 5670 5669 5669 5668 5668 5668 5669 5669 5669 5669 5670 5670 5669 5670 5670 5669 5669 5669 5669 5669 5668 5668 5668 5668 5669 5669 5670 5669 5669 5668 5667 5667
5716 5715 5715 5714 5713 5712 5711 5710 5709 5708 5707 5706 5704 5703 5701 5700 5698 5697 5695 5694 5693 5691 5690 5688 5687 5686 5684 5683 5682 5681 5680 5679 5678 5677 5677 5676 5675 5674 5673 5672 5671 5670 5669 5668 5668 5667 5666 5666 5665 5665 5665 5664 5664 5663 5663 5663 5662 5662 5662 5662 5662 5662 5663 5663 5663 5663 5663 5663 5662 5662 5662 5662 5661 5660 5660 5661 5661 5660 5661 5662 5662 5661 5660 5660 5660
5712 5712 5711 5710 5710 5709 5708 5707 5705 5704 5703 5702 5700 5699 5698 5696 5694 5693 5691 5690 5689 5687 5685 5684 5682 5680 5679 5678 5676 5675 5674 5673 5672 5671 5670 5669 5668 5668 5667 5666 5665 5664 5663 5662 5661 5661 5660 5659 5658 5658 5657 5657 5657 5656 5656 5656 5656 5655 5655 5655 5655 5655 5655 5655 5655 5655 5655 5655 5655 5654 5654 5654 5654 5653 5652 5653 5653 5652 5653 5654 5654 5653 5653 5654 5654
5709 5708 5707 5707 5706 5705 5704 5703 5702 5701 5700 5698 5697 5696 5694 5693 5691 5689 5688 5686 5685 5683 5681 5680 5678 5676 5675 5673 5672 5671 5669 5668 5667 5665 5664 5663 5662 5661 5660 5659 5658 5657 5655 5655 5654 5653 5653 5652 5651 5651 5650 5650 5649 5649 5649 5648 5648 5648 5648 5648 5648 5648 5648 5648 5647 5647 5647 5647 5647 5646 5646 5646 5646 5645 5645 5645 5645 5645 5646 5646 5646 5645 5645 5647 5647
5705 5705 5704 5703 5703 5702 5701 5700 5699 5697 5696 5695 5694 5692 5691 5689 5688 5686 5684 5683 5681 5679 5678 5676 5674 5673 5671 5670 5668 5667 5665 5664 5662 5661 5659 5658 5656 5655 5654 5652 5651 5649 5648 5647 5646 5645 5645 5644 5643 5643 5643 5642 5642 5641 5641 5641 5641 5640 5640 5640 5641 5641 5641 5640 5640 5640 5640 5640 5640 5639 5639 5639 5638 5637 5637 5637 5637 5637 5638 5640 5639 5638 5637 5639 5639
5702 5701 5701 5700 5700 5699 5697 5696 5696 5694 5693 5692 5691 5689 5687 5686 5684 5683 5681 5680 5678 5676 5675 5673 5672 5670 5668 5667 5665 5664 5662 5661 5659 5657 5656 5654 5652 5650 5648 5647 5645 5643 5642 5640 5639 5637 5636 5636 5635 5635 5634 5634 5633 5633 5633 5632 5632 5632 5632 5632 5633 5633 5632 5633 5633 5633 5633 5633 5632 5632 5631 5631 5630 5630 5630 5630 5630 5630 5631 5632 5632 5631 5631 5631 5631
5699 5698 5698 5697 5697 5696 5695 5694 5693 5691 5690 5689 5688 5686 5685 5683 5682 5680 5679 5677 5676 5674 5673 5671 5670 5668 5666 5665 5663 5662 5660 5658 5656 5654 5653 5651 5649 5646 5644 5642 5640 5638 5636 5634 5632 5630 5629 5628 5627 5626 5625 5624 5624 5624 5624 5624 5624 5624 5623 5623 5624 5624 5624 5624 5625 5625 5625 5625 5625 5624 5624 5623 5623 5622 5622 5622 5622 5622 5623 5624 5624 5624 5624 5623 5623
5696 5696 5695 5694 5694 5693 5692 5692 5690 5689 5688 5686 5685 5684 5683 5681 5680 5679 5677 5676 5674 5673 5671 5670 5668 5667 5665 5663 5661 5659 5658 5656 5654 5652 5650 5647 5645 5643 5640 5638 5636 5633 5630 5628 5626 5623 5621 5620 5619 5617 5616 5615 5615 5614 5614 5614 5614 5614 5614 5614 5614 5615 5615 5616 5616 5616 5616 5616 5616 5616 5616 5615 5615 5614 5614 5614 5615 5615 5616 5616 5616 5616 5617 5617 5617
5694 5693 5693 5692 5691 5691 5690 5689 5688 5687 5686 5684 5683 5682 5681 5680 5679 5677 5676 5675 5673 5671 5670 5668 5667 5665 5663 5661 5659 5657 5655 5653 5651 5649 5647 5644 5642 5639 5636 5634 5631 5628 5625 5623 5620 5617 5615 5613 5611 5609 5608 5606 5606 5605 5605 5605 5604 5604 5604 5604 5605 5606 5606 5607 5607 5607 5607 5607 5607 5607 5608 5607 5607 5606 5606 5607 5607 5608 5608 5607 5607 5608 5610 5610 5610
5691 5691 5690 5690 5689 5689 5688 5687 5686 5685 5684 5683 5682 5681 5680 5678 5677 5676 5674 5673 5672 5670 5668 5667 5665 5663 5661 5659 5657 5655 5653 5650 5648 5646 5644 5642 5639 5636 5633 5630 5626 5623 5619 5616 5614 5611 5609 5606 5604 5602 5601 5599 5598 5597 5596 5596 5595 5595 5595 5595 5596 5596 5597 5598 5598 5598 5598 5598 5599 5600 5599 5599 5598 5599 5600 5600 5599 5598 5598 5598 5599 5600 5602 5603 5602
5689 5689 5689 5688 5688 5687 5686 5686 5685 5684 5683 5682 5681 5680 5679 5677 5676 5675 5673 5672 5670 5669 5667 5665 5663 5661 5659 5657 5655 5653 5650 5648 5646 5643 5641 5638 5636 5633 5630 5627 5624 5620 5616 5612 5608 5605 5604 5602 5599 5597 5595 5593 5591 5590 5589 5588 5587 5586 5586 5586 5587 5587 5588 5589 5589 5589 5590 5591 5591 5591 5591 5591 5591 5592 5592 5592 5591 5590 5590 5591 5591 5593 5595 5595 5593
5688 5687 5687 5687 5686 5686 5685 5684 5684 5683 5682 5681 5680 5679 5678 5676 5675 5674 5672 5671 5669 5667 5665 5663 5661 5659 5657 5655 5653 5651 5649 5646 5644 5641 5639 5636 5633 5630 5627 5625 5622 5618 5615 5610 5605 5601 5599 5597 5595 5593 5590 5588 5585 5584 5582 5581 5580 5580 5579 5578 5578 5578 5578 5579 5580 5581 5582 5583 5583 5583 5583 5584 5584 5584 5584 5583 5583 5583 5584 5583 5583 5585 5586 5586 5585
5686 5686 5686 5685 5685 5684 5684 5683 5682 5681 5680 5679 5678 5677 5676 5675 5673 5672 5670 5669 5667 5666 5664 5662 5660 5658 5655 5653 5651 5649 5647 5645 5642 5639 5637 5634 5631 5628 5625 5622 5619 5616 5612 5609 5604 5600 5596 5593 5591 5589 5586 5584 5581 5579 5577 5576 5575 5574 5572 5572 5571 5571 5571 5571 5572 5573 5573 5574 5574 5575 5575 5576 5576 5576 5576 5575 5575 5576 5577 5577 5576 5576 5577 5578 5578
5685 5685 5684 5684 5684 5683 5682 5682 5681 5680 5679 5677 5676 5675 5674 5672 5671 5669 5668 5666 5665 5664 5662 5660 5658 5656 5654 5652 5650 5648 5645 5643 5640 5638 5635 5632 5629 5626 5623 5620 5617 5613 5610 5607 5603 5599 5595 5591 5588 5585 5582 5580 5577 5575 5572 5571 5569 5568 5566 5566 5565 5565 5565 5565 5565 5565 5565 5566 5566 5567 5568 5568 5569 5569 5569 5569 5569 5569 5570 5570 5569 5569 5570 5572 5572
5684 5684 5683 5683 5682 5681 5681 5680 5679 5678 5676 5675 5674 5673 5671 5670 5669 5667 5665 5664 5662 5661 5659 5658 5656 5654 5652 5650 5648 5646 5643 5641 5638 5636 5633 5631 5628 5625 5621 5618 5615 5611 5608 5605 5601 5597 5593 5589 5586 5583 5579 5576 5574 5571 5569 5566 5565 5563 5562 5561 5560 5560 5560 5560 5559 5559 5559 5559 5559 5560 5561 5562 5562 5562 5562 5563 5564 5564 5563 5564 5564 5564 5565 5565 5566
5682 5682 5682 5681 5680 5679 5679 5677 5676 5675 5674 5673 5671 5670 5669 5667 5666 5665 5663 5662 5660 5659 5657 5656 5654 5652 5650 5648 5646 5644 5641 5639 5636 5634 5631 5629 5626 5623 5620 5617 5613 5610 5606 5603 5599 5595 5591 5587 5584 5581 5577 5574 5571 5568 5565 5563 5561 5560 5558 5557 5556 5555 5555 5555 5555 5554 5553 5554 5554 5555 5555 5556 5556 5556 5557 5558 5559 5559 5558 5558 5559 5559 5559 5560 5560
5681 5680 5680 5679 5678 5677 5676 5675 5674 5673 5671 5670 5669 5667 5666 5664 5663 5662 5661 5659 5658 5656 5655 5653 5652 5650 5648 5646 5644 5642 5639 5637 5634 5632 5629 5627 5624 5621 5618 5615 5612 5608 5605 5601 5598 5594 5590 5586 5582 5579 5576 5573 5569 5566 5563 5560 5558 5557 5555 5554 5553 5552 5551 5551 5551 5550 5550 5550 5550 5550 5550 5550 5551 5551 5552 5553 5553 5553 5553 5553 5553 5554 5555 5555 5556
5679 5678 5678 5677 5676 5675 5674 5673 5672 5670 5669 5667 5666 5665 5663 5662 5660 5659 5658 5657 5656 5654 5653 5651 5650 5648 5646 5644 5642 5640 5638 5635 5633 5630 5627 5624 5622 5619 5616 5613 5610 5607 5603 5600 5596 5593 5589 5585 5581 5578 5574 5571 5568 5564 5561 5558 5556 5554 5553 5552 5550 5549 5549 5548 5548 5547 5546 5546 5546 5546 5547 5547 5547 5547 5548 5548 5548 5548 5549 5549 5549 5550 5551 5551 5552
5677 5677 5676 5675 5674 5673 5672 5670 5669 5668 5666 5665 5663 5662 5661 5659 5658 5657 5656 5655 5653 5652 5651 5649 5648 5646 5644 5642 5640 5638 5636 5633 5631 5628 5625 5622 5620 5617 5614 5611 5608 5605 5602 5598 5595 5591 5588 5584 5580 5577 5573 5570 5567 5563 5560 5557 5555 5553 5551 5550 5549 5548 5547 5546 5545 5544 5544 5544 5543 5543 5544 5544 5543 5543 5544 5544 5544 5545 5545 5546 5546 5547 5547 5548 5549
5675 5675 5674 5673 5672 5670 5669 5668 5666 5665 5663 5662 5660 5659 5658 5657 5656 5655 5654 5652 5651 5650 5649 5647 5645 5644 5642 5640 5638 5636 5634 5631 5629 5626 5624 5621 5618 5615 5612 5609 5606 5603 5600 5596 5593 5590 5587 5583 5579 5576 5572 5569 5565 5562 5559 5556 5554 5551 5549 5548 5547 5546 5545 5544 5543 5542 5542 5541 5541 5541 5541 5540 5540 5540 5540 5540 5541 5542 5542 5543 5543 5544 5544 5545 5546
5673 5672 5672 5670 5669 5668 5666 5665 5663 5662 5661 5659 5658 5657 5655 5654 5653 5652 5651 5650 5649 5648 5646 5645 5643 5642 5640 5638 5636 5634 5632 5629 5627 5624 5621 5619 5616 5613 5610 5607 5604 5601 5598 5595 5591 5588 5585 5582 5578 5575 5571 5568 5564 5561 5558 5555 5553 5550 5548 5547 5545 5544 5543 5542 5541 5540 5540 5539 5539 5538 5538 5537 5537 5538 5538 5538 5538 5538 5539 5539 5540 5541 5541 5542 5543
5670 5670 5669 5668 5667 5665 5664 5663 5662 5660 5659 5657 5656 5655 5654 5653 5652 5650 5649 5648 5647 5646 5644 5643 5641 5639 5638 5636 5634 5631 5629 5627 5624 5622 5619 5616 5614 5611 5608 5605 5602 5599 5596 5593 5590 5587 5583 5580 5577 5573 5570 5567 5564 5561 5557 5554 5551 5549 5547 5545 5543 5542 5541 5540 5539 5538 5537 5537 5536 5536 5535 5535 5535 5535 5535 5535 5535 5535 5536 5536 5537 5537 5538 5539 5540
5668 5668 5667 5666 5664 5663 5662 5661 5659 5658 5657 5656 5654 5653 5652 5651 5650 5648 5647 5646 5645 5643 5642 5640 5639 5637 5634 5632 5630 5628 5626 5624 5621 5619 5616 5614 5611 5609 5606 5603 5600 5597 5594 5591 5587 5584 5581 5579 5576 5572 5569 5566 5562 5559 5556 5553 5551 5548 5545 5543 5542 5540 5539 5538 5537 5536 5535 5534 5534 5533 5533 5533 5532 5532 5532 5532 5532 5532 5533 5533 5534 5534 5535 5536 5537
5666 5666 5665 5664 5662 5661 5660 5658 5657 5656 5654 5653 5652 5651 5650 5649 5648 5647 5645 5644 5642 5641 5639 5637 5636 5634 5631 5629 5627 5625 5622 5620 5618 5616 5613 5611 5608 5606 5603 5601 5598 5595 5592 5589 5585 5582 5579 5576 5574 5571 5568 5565 5561 5558 5555 5552 5550 5547 5544 5542 5540 5538 5537 5536 5535 5534 5533 5532 5531 5530 5530 5530 5530 5529 5529 5529 5529 5530 5530 5531 5531 5532 5533 5534 5534
5664 5663 5662 5661 5660 5659 5658 5657 5655 5654 5653 5652 5650 5649 5648 5647 5646 5645 5643 5641 5640 5638 5636 5634 5633 5631 5629 5627 5624 5622 5620 5617 5615 5613 5610 5608 5605 5603 5600 5598 5595 5593 5590 5587 5584 5581 5577 5574 5571 5569 5566 5564 5560 5557 5554 5551 5548 5546 5543 5541 5538 5536 5535 5534 5532 5532 5531 5530 5529 5528 5527 5527 5527 5527 5527 5527 5527 5527 5527 5528 5528 5529 5530 5531 5531
5662 5661 5660 5659 5658 5657 5656 5655 5654 5653 5651 5650 5649 5648 5646 5645 5644 5642 5641 5639 5637 5635 5634 5632 5630 5628 5626 5624 5622 5619 5617 5614 5612 5610 5607 5605 5603 5600 5598 5595 5593 5590 5588 5585 5582 5579 5575 5572 5569 5566 5564 5562 5559 5556 5553 5549 5547 5544 5542 5539 5537 5535 5533 5531 5530 5529 5528 5527 5526 5526 5525 5524 5524 5524 5524 5524 5524 5524 5525 5525 5526 5526 5527 5527 5528
5660 5659 5658 5657 5655 5654 5653 5652 5651 5650 5649 5648 5647 5646 5644 5643 5641 5639 5638 5636 5635 5633 5631 5629 5627 5625 5623 5620 5618 5616 5614 5611 5609 5607 5604 5602 5600 5597 5595 5592 5590 5588 5585 5582 5579 5577 5574 5571 5567 5564 5561 5559 5557 5554 5552 5549 5546 5543 5540 5538 5536 5533 5531 5529 5528 5527 5526 5525 5524 5523 5522 5522 5521 5521 5521 5521 5521 5522 5522 5523 5523 5523 5524 5524 5525